GFSNE_sfc_wetblb_084.txt.gz
Wetbulb
61.18 61.30 60.34 60.33 60.16 59.42 58.27 57.29 55.65 52.20 53.08 57.46 56.72 60.43 62.06 62.77 60.44 61.74 61.03 55.47 50.33 49.27 49.45 50.54 52.09 53.18 53.75 54.32 55.03 55.93 57.01 57.85 58.69 59.20 59.76 60.23 60.92 61.38
57.57 57.71 59.16 59.72 60.27 59.66 59.32 57.50 56.66 53.44 50.66 55.86 57.80 58.99 60.27 58.10 57.16 59.07 59.74 54.45 50.09 48.25 47.70 47.97 48.99 50.63 51.55 52.02 52.80 53.55 54.26 55.05 55.95 56.78 57.67 58.17 59.06 59.68
57.49 57.09 56.71 57.85 57.93 57.79 57.74 56.04 54.89 54.67 52.18 53.77 55.68 57.06 59.51 57.83 58.02 59.28 57.37 57.74 57.88 48.85 48.08 47.56 47.28 47.44 48.24 48.88 49.51 50.47 51.41 52.27 53.04 54.11 55.09 56.15 57.26 58.17
55.34 56.67 56.19 56.59 56.42 57.05 56.52 55.86 55.51 55.90 54.37 52.58 54.87 55.11 55.01 57.09 57.69 57.07 56.86 57.29 59.27 54.65 48.29 47.45 47.22 46.50 45.94 46.08 46.38 46.68 47.59 48.72 49.34 50.33 51.47 52.79 54.27 55.44
56.04 54.25 54.72 55.62 55.49 56.73 55.91 55.90 56.20 56.25 55.41 54.04 53.66 56.07 56.23 56.66 57.31 59.93 60.36 60.98 61.76 55.76 49.94 47.78 47.12 46.89 46.91 46.33 46.05 45.78 45.82 45.96 45.83 46.26 46.80 47.65 48.91 50.56
56.91 56.97 56.02 56.73 56.43 56.23 55.88 56.25 56.33 56.33 55.86 54.93 55.58 57.30 57.70 58.82 59.12 57.56 58.35 60.85 60.42 61.06 55.96 52.32 50.57 49.29 47.09 47.28 46.59 46.29 45.80 45.74 45.62 45.16 44.43 43.57 43.51 44.99
58.91 59.17 59.61 57.22 52.04 54.95 57.41 57.63 58.22 57.07 55.28 55.21 55.71 56.17 57.40 57.70 56.26 57.14 55.75 56.81 57.48 57.92 58.04 58.28 59.05 59.97 52.07 43.19 42.93 42.66 42.76 44.09 44.98 45.09 44.79 43.87 42.61 42.72
57.02 58.02 58.44 51.48 51.09 44.32 44.71 44.71 49.27 54.86 54.68 54.20 53.76 52.87 53.21 54.17 54.50 54.01 53.92 52.90 51.20 41.28 44.05 52.10 41.98 37.21 36.65 37.16 37.89 38.71 39.56 39.77 39.82 40.56 40.98 40.82 40.28 40.81
40.53 41.01 43.73 41.76 39.22 41.71 41.06 35.85 34.71 34.49 34.68 40.85 44.82 40.92 36.28 35.13 34.94 38.66 42.39 38.50 37.58 34.97 38.46 36.40 35.88 32.52 34.01 34.86 36.37 36.39 36.65 36.72 36.64 36.55 36.65 36.65 36.34 35.88
34.27 34.53 34.73 34.72 35.20 36.20 41.36 34.62 32.06 31.63 31.72 31.76 30.45 29.32 29.81 30.84 32.19 34.88 36.71 36.71 35.07 32.16 30.71 36.52 33.94 30.66 31.70 32.30 33.71 34.11 34.11 34.32 34.35 34.31 34.30 34.37 34.10 33.82
31.32 32.04 31.83 31.63 32.95 37.04 38.03 31.26 29.79 28.74 30.25 30.87 30.44 30.08 30.33 30.58 30.62 34.47 31.54 32.84 33.99 28.74 28.18 29.71 31.03 29.97 30.25 30.89 32.48 32.65 32.60 33.11 33.49 33.22 33.32 33.77 33.61 33.23
30.50 30.58 31.04 30.92 31.43 31.87 30.96 29.26 26.16 25.89 26.92 27.38 27.98 29.00 29.92 29.35 29.45 30.03 31.21 30.64 30.92 30.68 30.12 30.87 33.05 33.37 32.03 33.92 33.24 33.81 33.64 31.51 31.00 30.73 30.79 30.94 31.40 34.82
29.66 29.45 29.99 29.37 29.84 30.47 30.41 30.95 28.57 29.85 29.09 30.15 30.85 31.34 31.52 31.08 30.46 30.32 30.60 29.68 30.54 29.08 28.58 31.50 31.05 32.35 32.82 31.71 32.30 32.38 32.33 31.92 32.34 32.11 30.17 28.82 28.50 28.37
29.24 28.96 28.74 27.76 27.76 28.22 29.22 28.58 29.61 31.33 31.93 30.47 29.51 28.14 27.73 27.41 28.21 28.45 28.18 27.95 28.06 26.57 28.22 29.18 29.22 29.05 29.73 30.32 29.47 31.22 31.51 29.60 29.28 28.36 28.50 28.38 27.80 26.74
28.20 26.95 26.52 26.97 27.48 27.34 26.12 26.70 28.13 29.47 29.05 27.78 26.67 26.49 26.78 26.97 28.33 28.85 29.40 29.26 28.51 27.12 26.28 27.11 27.75 28.16 28.62 27.69 27.57 27.79 26.45 29.14 29.04 27.19 27.19 26.95 27.13 27.93
28.08 28.65 27.40 27.19 26.28 26.18 27.12 26.92 27.24 26.61 26.50 26.11 26.12 26.96 27.69 26.75 25.53 26.52 26.18 26.65 26.90 26.45 26.76 26.08 26.26 26.75 25.67 26.92 25.70 25.12 25.84 23.21 26.35 25.93 25.26 25.41 26.66 27.20
29.10 29.43 28.47 28.00 26.96 26.26 25.24 24.06 24.19 24.60 23.72 24.29 24.26 24.23 24.14 24.59 23.96 24.92 24.55 25.02 23.99 22.82 23.17 24.58 25.62 25.77 25.47 23.32 23.58 24.28 23.20 23.19 24.67 23.86 23.03 22.69 24.95 26.13
27.54 26.07 24.92 24.74 23.39 22.92 22.35 21.79 21.63 20.35 21.11 21.61 21.68 21.83 21.63 21.30 21.75 22.67 22.95 22.59 21.49 21.64 21.66 22.24 22.61 22.78 24.34 22.64 21.15 21.24 21.93 21.90 23.06 23.06 23.06 21.59 22.48 25.72
24.38 23.05 22.26 21.79 21.19 20.81 20.68 19.81 18.80 18.58 19.27 19.44 19.29 18.90 20.13 20.29 20.18 20.00 20.09 20.13 20.03 20.51 21.13 21.45 20.54 19.09 17.25 17.24 22.06 18.74 18.60 19.40 19.84 20.70 21.89 21.71 20.89 22.70
20.98 20.19 19.63 19.50 19.06 18.40 18.15 17.71 17.53 17.49 17.34 17.05 16.83 16.57 17.01 18.29 17.99 17.57 18.03 15.84 16.93 18.49 19.07 20.56 19.39 16.98 14.88 14.88 15.37 19.55 20.37 18.27 18.40 17.91 18.62 20.82 21.97 22.44
18.36 17.81 18.16 17.97 17.80 17.53 17.01 16.41 15.45 14.74 14.04 14.95 15.32 14.48 14.79 16.41 15.51 15.47 16.00 13.45 13.58 17.07 16.17 16.76 18.13 15.44 18.96 19.82 16.87 18.23 20.66 20.90 19.43 17.66 17.58 17.09 17.00 18.44
17.00 16.19 16.21 16.12 15.97 16.10 16.05 15.08 15.56 14.49 13.68 14.00 13.46 13.75 13.53 14.80 13.95 13.82 14.19 13.89 14.99 15.06 15.98 17.47 18.81 18.67 17.64 15.76 14.40 14.91 17.60 20.15 20.55 20.80 20.04 19.06 16.94 13.78
15.52 15.79 15.79 15.13 15.55 15.04 14.78 14.35 12.53 13.27 11.59 11.42 11.99 11.61 11.24 11.99 12.44 13.73 13.61 13.53 13.58 12.94 14.14 14.00 16.51 17.60 16.09 16.06 14.34 15.16 15.61 16.55 18.51 18.47 20.15 21.54 20.85 20.34

GFSNE_sfc_wetblb_087.txt.gz
Wetbulb
60.74 59.82 59.92 60.31 61.47 60.71 60.47 59.54 56.79 52.75 53.51 57.04 56.96 62.39 62.64 62.99 60.84 62.52 62.78 56.67 50.29 49.28 49.39 50.58 52.24 53.29 53.70 54.37 55.12 56.02 56.94 57.79 58.25 58.56 59.10 59.85 60.49 61.08
59.12 59.22 60.18 60.23 59.56 59.37 60.14 60.00 58.82 56.23 52.15 55.37 57.75 58.74 61.27 60.01 59.61 60.48 62.36 54.76 50.70 48.50 47.90 48.38 49.29 50.82 51.69 52.12 52.81 53.44 54.09 54.90 55.86 56.49 57.13 57.80 58.73 59.45
57.64 58.15 57.50 58.55 58.51 60.29 60.08 60.13 58.97 57.90 54.51 56.11 56.20 56.29 56.51 56.39 57.58 57.92 57.35 57.95 58.40 50.06 47.87 47.58 47.76 48.20 48.89 49.04 49.59 50.73 51.65 52.32 52.97 53.92 54.96 56.14 57.31 58.13
56.43 56.44 56.16 56.20 56.64 57.70 57.91 57.18 57.03 57.60 55.12 52.24 54.57 55.09 55.38 56.54 56.46 56.43 57.08 58.13 57.56 54.01 49.20 48.65 48.27 47.26 47.12 46.55 46.72 47.15 47.59 48.18 48.76 50.08 51.12 52.46 54.06 55.52
54.87 55.24 55.79 56.27 56.27 56.45 56.78 55.69 56.23 55.82 55.45 54.15 53.16 55.58 57.56 57.50 56.79 57.11 57.43 58.17 58.91 55.11 49.32 47.26 47.18 47.03 46.92 46.23 46.16 46.18 45.96 45.84 45.45 45.69 46.34 47.11 48.50 50.16
54.76 55.85 56.02 54.59 55.23 55.47 55.88 54.91 54.70 54.25 54.29 53.98 53.98 54.54 56.13 58.84 58.32 57.41 57.87 59.76 59.19 60.83 56.52 52.65 50.61 47.30 42.32 42.13 42.13 42.22 42.64 43.93 44.39 44.53 43.92 42.90 42.72 44.25
55.65 56.25 56.55 54.62 50.17 51.67 55.25 55.49 56.21 55.32 54.51 53.93 54.06 54.65 54.85 55.11 55.00 56.68 55.78 56.65 58.68 47.68 48.60 48.80 43.86 41.04 38.55 39.28 39.47 40.01 40.41 40.76 41.00 41.60 41.63 40.99 41.21 41.63
52.25 50.65 48.98 42.54 42.22 37.74 36.89 37.14 36.89 44.28 48.04 51.31 52.84 52.76 51.63 39.34 38.53 40.97 42.63 43.41 45.15 38.88 40.92 42.74 38.79 35.35 35.52 35.10 36.45 37.14 37.54 37.78 37.86 38.12 38.35 38.23 37.64 37.48
38.54 38.67 40.23 38.83 38.08 40.85 35.58 34.07 32.84 32.81 32.12 36.82 38.65 31.26 32.54 31.41 32.91 36.34 39.55 39.55 40.01 33.42 35.88 38.60 36.46 32.28 32.91 33.71 35.04 35.12 35.20 35.50 35.53 35.20 35.19 35.03 35.24 35.34
33.37 33.53 33.87 34.03 35.34 37.89 34.29 30.78 29.96 30.55 30.70 30.78 30.06 29.74 30.04 30.99 31.96 33.81 35.51 35.25 35.10 31.38 30.53 33.44 33.32 30.30 32.12 32.50 33.41 33.87 34.08 34.23 34.30 34.43 34.52 34.68 34.26 34.22
31.21 32.08 31.99 31.90 34.40 37.10 32.30 28.95 28.17 27.77 30.82 31.68 31.71 31.22 31.04 31.10 31.45 32.90 32.42 33.83 32.79 30.61 30.27 30.50 33.14 32.22 31.85 32.46 33.51 32.66 32.18 31.94 32.09 32.03 32.21 32.26 32.71 34.64
30.08 30.34 31.29 31.53 32.78 32.77 31.43 29.83 27.53 28.36 30.47 31.73 32.20 32.46 32.34 31.57 30.24 31.06 31.20 31.40 31.93 32.58 29.64 28.25 32.43 33.38 32.68 34.38 34.24 34.20 34.24 31.97 31.15 31.23 30.61 30.13 29.67 32.62
29.60 28.91 30.08 30.14 30.56 31.18 31.43 31.65 30.53 32.52 32.01 32.43 31.48 31.52 31.03 31.33 30.04 30.69 30.73 28.74 28.30 28.16 28.43 29.42 30.96 31.11 32.11 32.10 33.20 33.15 32.99 31.89 31.98 32.10 31.20 30.45 29.26 28.07
29.02 29.28 29.36 28.42 28.79 29.13 29.75 29.99 30.91 31.93 32.70 30.88 30.13 28.29 28.31 28.11 29.82 30.47 30.52 29.64 28.87 26.64 28.24 29.80 28.65 28.29 27.82 28.80 30.46 32.62 32.15 32.17 31.21 30.04 30.37 29.79 29.60 29.71
29.17 27.86 28.27 28.60 28.72 28.26 27.64 28.01 29.19 30.66 30.22 28.65 27.64 27.98 28.55 28.93 31.13 30.48 32.65 31.37 31.32 29.10 27.98 27.55 26.76 27.19 27.99 27.21 27.27 28.08 28.04 28.94 30.50 28.37 28.01 27.72 27.27 28.71
29.85 29.92 28.89 28.71 28.70 28.32 27.93 28.10 28.01 27.31 27.10 26.72 26.90 27.89 28.57 28.00 26.84 27.27 26.66 27.72 27.64 27.37 28.91 28.13 27.16 26.24 24.74 25.21 25.28 25.79 26.56 23.83 26.72 26.90 26.72 26.69 27.69 28.41
30.67 30.82 29.08 28.53 27.23 27.00 26.17 25.04 24.93 25.23 24.52 25.16 24.97 25.10 25.02 24.58 24.86 25.79 25.15 25.58 24.52 23.92 24.43 25.79 26.65 26.87 26.61 24.00 22.04 23.70 23.54 23.56 24.95 24.65 24.02 23.72 26.49 28.11
28.16 26.34 25.48 25.55 24.44 24.11 23.41 23.16 22.54 21.53 22.40 22.95 22.68 22.59 22.58 22.83 22.32 23.77 23.75 23.00 22.28 22.62 22.69 23.70 23.17 22.49 23.48 24.12 21.88 21.54 21.31 21.23 21.92 22.34 22.94 22.33 22.32 25.90
25.53 24.55 23.69 23.22 22.59 21.97 21.78 21.15 20.14 20.08 20.72 20.74 20.35 19.79 20.30 21.31 21.07 20.67 20.97 19.94 19.28 20.82 21.61 22.89 21.58 19.19 15.01 14.52 21.75 22.10 19.91 20.17 20.12 20.07 21.02 20.78 20.15 21.85
22.78 21.98 21.42 21.29 20.76 20.05 19.66 18.93 18.92 18.39 18.57 18.78 18.50 17.86 17.83 19.24 18.85 18.13 18.75 16.59 16.85 18.45 19.60 21.21 20.39 17.71 13.72 13.01 15.19 19.91 23.96 19.98 19.57 18.58 18.78 20.58 21.56 22.76
20.00 19.48 19.84 19.85 19.70 19.61 18.83 18.86 18.14 16.79 16.37 16.97 17.14 16.33 16.07 17.00 16.37 16.62 16.82 15.27 15.24 17.47 16.10 17.26 19.00 18.49 20.31 20.55 17.38 17.80 20.75 22.88 22.66 19.79 19.38 17.86 17.10 17.89
19.54 18.74 18.62 18.55 18.23 17.86 18.26 17.13 17.32 16.91 15.31 15.48 15.21 15.17 14.77 15.52 14.96 14.83 15.33 14.66 15.23 15.57 15.61 17.68 19.15 19.71 18.67 16.64 15.27 16.27 18.00 20.87 22.56 23.16 23.21 21.75 18.67 14.67
17.63 18.05 17.98 17.00 17.29 17.05 16.88 16.19 14.82 14.68 14.22 13.40 13.67 12.91 12.95 13.11 14.39 14.54 14.72 14.54 14.45 14.09 14.80 13.60 15.72 17.97 17.01 16.85 16.05 16.21 16.03 16.93 19.21 18.71 20.14 22.03 22.00 21.69

GFSNE_sfc_wetblb_093.txt.gz
Wetbulb
58.85 58.70 58.01 57.90 57.45 56.99 56.36 55.17 53.29 49.92 52.19 54.34 55.07 58.34 58.63 58.55 57.51 57.35 56.68 53.50 49.54 49.12 48.78 50.54 52.22 53.70 54.03 54.86 55.64 56.40 57.59 57.95 58.42 58.60 58.84 59.15 59.76 60.31
58.63 58.30 58.27 57.27 56.95 56.68 55.95 56.13 54.93 51.65 49.18 52.62 53.82 56.14 58.58 59.35 58.07 58.90 58.78 54.75 50.35 48.67 48.15 48.54 49.84 51.12 51.88 52.64 53.10 53.65 54.60 55.47 56.13 56.67 56.96 57.48 58.03 58.61
57.99 58.07 57.54 57.10 56.32 56.30 56.08 55.99 54.78 54.70 51.16 52.77 53.21 54.54 54.89 55.68 55.97 56.19 55.66 56.44 56.30 49.22 48.19 48.10 48.12 48.32 48.82 49.77 49.80 50.41 51.00 51.62 52.34 53.12 53.87 55.13 56.12 56.80
57.66 57.58 56.28 56.14 55.74 55.33 55.05 55.03 55.19 55.45 53.39 51.69 53.36 53.37 52.67 53.33 54.23 54.39 54.89 55.95 56.08 52.57 49.05 46.05 44.84 44.62 44.42 43.70 43.78 43.99 44.37 44.77 45.24 46.04 47.14 48.36 49.63 50.57
55.16 55.01 55.18 55.14 54.40 54.56 54.38 54.08 54.87 54.76 54.41 52.95 52.54 53.68 53.91 53.89 54.03 54.21 54.49 55.31 56.32 52.36 43.23 41.47 41.59 41.47 41.60 41.08 41.39 41.75 41.96 41.95 41.70 41.10 40.56 40.56 41.77 43.56
54.56 54.38 54.48 54.15 54.15 54.43 54.35 54.21 54.08 54.06 53.66 53.45 52.78 52.55 53.00 53.21 53.35 52.08 53.01 48.33 46.14 48.54 43.05 40.85 40.40 39.98 39.86 39.80 39.93 39.94 39.96 39.89 39.88 39.42 38.89 38.27 38.09 39.23
54.14 52.44 45.86 44.02 41.20 42.84 53.44 53.90 53.90 53.39 52.88 52.46 51.99 52.16 51.48 44.76 44.00 43.15 44.64 46.01 39.72 38.66 44.19 41.33 38.82 37.61 37.36 37.74 38.25 38.47 38.11 38.01 37.94 37.95 37.71 37.25 36.86 37.04
45.43 42.96 40.68 38.18 36.24 35.60 35.51 34.52 35.55 44.83 49.51 49.14 43.97 42.26 37.18 35.62 37.32 37.94 40.03 41.72 41.56 34.07 36.59 36.45 36.40 33.71 34.57 35.69 36.62 36.46 36.44 36.39 36.17 35.97 35.49 35.65 35.63 35.46
37.99 39.17 39.23 36.96 35.90 34.44 33.43 33.24 32.99 33.05 33.64 38.37 33.67 32.04 31.31 31.28 32.72 36.06 36.10 36.81 33.37 29.90 32.43 33.37 34.49 31.34 33.68 34.49 35.12 34.90 34.38 34.02 33.80 33.37 33.02 32.57 32.81 33.88
34.00 35.06 37.05 37.19 34.66 33.34 31.97 30.94 30.96 31.20 31.13 31.21 30.36 29.82 30.36 31.33 32.39 34.40 34.85 32.06 30.92 27.88 27.90 30.46 30.63 28.97 31.10 29.18 33.97 33.45 33.44 33.27 32.88 32.57 32.28 32.09 31.77 31.16
32.71 32.95 32.89 33.07 33.49 33.80 30.90 29.53 29.73 30.55 32.62 32.64 32.11 31.25 30.96 31.08 30.60 31.90 29.75 32.31 30.35 26.27 20.49 27.06 30.51 22.37 30.47 30.78 30.86 33.57 33.14 32.97 32.97 32.45 32.24 32.34 31.77 30.34
30.67 31.66 32.81 32.10 32.68 32.41 31.18 30.41 28.77 29.14 29.65 29.29 29.03 29.52 28.31 26.76 29.33 24.01 21.83 23.47 20.59 22.03 19.43 25.74 28.63 24.54 22.53 31.44 29.57 27.47 22.29 31.66 32.24 32.78 32.68 30.67 30.15 23.03
28.08 28.92 30.70 32.33 32.89 32.75 32.32 30.83 29.71 30.33 28.78 27.52 23.48 21.35 20.48 20.96 21.69 22.24 21.00 20.74 18.96 14.19 18.57 17.28 23.10 16.64 16.61 21.76 23.07 29.43 21.17 22.94 22.25 25.14 28.99 28.95 28.14 26.95
26.65 27.84 29.24 30.59 30.43 30.20 29.40 30.50 30.89 29.85 27.89 21.61 19.30 16.91 17.32 19.11 19.15 18.02 17.98 17.97 16.20 17.26 17.81 17.94 14.67 15.68 13.70 14.14 16.46 20.91 20.83 21.14 20.72 21.06 20.35 23.78 25.12 25.90
28.00 28.73 28.20 27.69 27.02 26.02 26.87 26.03 22.85 21.89 19.40 18.84 16.88 15.65 11.96 13.48 18.52 21.24 22.57 22.71 22.90 23.96 24.98 22.67 19.13 20.09 16.70 14.37 15.17 16.85 18.86 19.31 19.37 18.51 19.16 19.82 19.74 20.58
28.06 26.68 24.87 23.93 22.39 21.55 21.31 21.68 21.38 20.80 19.21 17.39 16.43 13.45 17.02 18.88 18.71 20.11 19.44 20.49 20.08 20.60 24.18 22.74 21.59 20.75 18.47 19.20 19.40 18.40 18.24 16.31 18.19 18.91 19.83 18.52 19.16 19.81
25.51 24.15 22.63 21.59 20.18 18.90 18.35 18.27 18.09 18.19 17.04 16.54 15.39 16.12 17.42 18.40 19.20 19.88 19.26 18.22 14.52 15.64 15.91 20.21 21.98 21.22 20.13 20.37 16.72 16.86 16.39 16.37 17.23 18.74 18.94 16.83 17.05 17.76
22.12 19.72 18.27 17.96 17.45 17.27 16.36 15.76 15.91 15.69 16.89 16.74 15.29 15.46 15.17 16.91 17.41 18.00 17.27 15.28 13.43 14.81 15.31 17.11 16.18 15.77 17.01 17.57 20.68 15.45 15.08 15.24 17.24 19.12 18.18 15.34 15.43 18.18
18.25 16.93 16.03 15.69 16.34 16.51 15.88 15.00 13.34 14.39 16.50 14.54 13.52 12.49 13.04 14.87 14.49 14.57 14.64 14.03 12.82 13.61 14.81 16.12 15.34 12.63 4.55 2.23 14.51 21.27 15.08 16.03 16.76 15.04 16.46 15.88 14.03 16.43
16.87 15.14 14.08 13.91 15.24 14.88 14.87 13.20 12.14 11.60 11.06 12.16 9.44 6.85 5.67 10.67 9.32 10.89 11.75 5.98 10.50 13.44 13.08 14.23 13.26 12.15 6.49 0.15 3.57 12.58 21.66 16.16 14.21 13.57 13.88 16.58 17.63 20.79
15.47 14.54 13.78 13.68 14.29 13.61 8.69 9.27 4.88 2.76 2.92 2.77 3.46 5.23 -0.65 6.59 4.67 7.04 7.20 4.65 6.07 11.42 10.07 10.43 11.90 13.93 15.29 14.03 3.17 5.56 12.23 20.29 18.54 15.36 15.87 12.21 10.95 11.99
13.51 12.75 12.10 10.63 9.16 11.74 8.71 -3.15 3.19 1.34 1.56 3.66 -3.65 -3.70 -0.82 2.71 3.22 3.19 5.16 4.95 8.06 8.27 9.53 10.66 12.58 12.85 12.19 10.40 8.31 4.77 10.24 12.23 17.14 19.38 18.45 16.72 10.98 7.85
8.00 12.23 8.39 3.62 3.40 2.50 6.22 3.01 3.01 0.03 -0.18 -0.57 0.05 0.87 -3.89 5.34 4.24 3.21 6.48 6.28 7.36 7.52 8.05 7.27 8.45 10.44 9.55 9.77 8.90 7.98 8.41 8.84 11.77 9.91 11.08 16.54 17.73 18.35

GFSNE_sfc_wetblb_096.txt.gz
Wetbulb
58.82 58.65 58.08 57.83 57.24 56.66 56.30 55.44 53.51 50.20 51.56 53.62 54.57 56.81 56.85 56.92 55.59 54.83 55.46 51.48 49.07 48.28 48.70 50.37 52.04 53.66 54.27 55.10 55.87 56.69 57.91 58.62 59.03 59.35 59.59 59.86 60.01 60.30
59.08 58.43 58.15 57.91 57.21 56.69 56.23 55.08 54.24 52.59 50.67 53.98 54.83 56.50 57.76 58.17 56.35 57.84 57.68 53.89 48.93 48.22 47.74 48.17 48.86 50.51 51.42 52.36 53.06 53.60 54.71 55.36 56.17 56.82 57.09 57.49 57.98 58.01
58.63 58.34 57.72 57.78 56.77 55.93 55.86 55.76 54.63 53.71 50.59 51.94 53.12 54.03 55.54 56.78 56.82 56.88 57.31 57.50 57.20 49.50 48.49 48.45 46.85 46.51 47.21 47.71 48.27 49.19 49.97 50.70 50.81 50.51 50.75 51.46 52.47 53.36
58.01 57.91 57.31 56.87 56.01 55.57 55.37 54.74 54.54 55.22 53.30 50.90 52.84 52.91 52.72 53.88 54.46 53.88 54.44 56.07 56.33 47.14 43.47 43.07 42.85 42.46 42.25 42.32 42.81 43.33 43.82 44.11 44.07 44.22 44.46 44.89 45.78 46.64
57.10 57.49 57.13 56.71 55.25 54.77 54.51 54.45 54.55 54.45 54.38 52.75 52.26 53.59 53.74 53.60 53.45 53.75 54.08 54.49 47.33 43.20 41.37 41.14 41.32 41.21 41.09 41.13 41.27 41.63 41.61 41.14 40.46 40.05 39.47 39.45 40.54 41.92
55.31 55.77 56.39 56.23 54.81 54.51 53.98 53.55 53.56 53.40 53.27 52.93 52.50 52.71 53.14 53.77 53.62 51.33 51.32 45.24 44.79 44.35 40.88 39.73 39.68 39.95 39.92 39.92 39.70 39.65 39.65 39.49 39.26 38.52 38.00 37.46 37.46 38.38
48.94 46.49 44.66 44.06 42.46 45.31 53.96 53.64 53.41 52.77 52.56 52.34 51.52 51.14 51.07 46.85 47.82 43.68 46.14 44.83 36.65 37.00 40.35 39.04 37.78 37.37 37.57 38.08 38.33 38.22 37.98 37.77 37.36 37.07 36.67 36.35 36.08 36.01
43.03 40.66 39.22 38.01 36.51 36.18 36.11 35.18 36.56 50.53 51.90 51.40 49.75 47.61 38.35 37.44 37.87 39.22 40.99 42.20 39.37 32.72 36.90 34.68 35.61 33.84 35.26 35.91 36.17 35.96 35.34 35.02 34.62 34.20 33.81 33.56 33.55 34.37
40.53 39.92 37.63 36.14 35.65 34.55 33.91 33.54 32.94 33.09 33.49 41.21 37.20 34.31 32.88 32.51 34.11 36.96 36.88 36.56 31.30 28.96 32.56 31.72 33.63 31.36 33.79 34.84 34.79 34.46 34.16 33.98 33.53 33.14 32.91 32.65 32.11 31.49
35.57 37.89 35.81 34.40 34.07 33.60 32.38 31.04 30.83 30.78 30.81 30.91 29.95 29.83 30.75 31.95 33.45 35.50 34.69 30.24 29.17 27.28 27.55 30.39 30.30 26.14 31.54 31.66 33.92 34.03 33.42 33.31 33.03 32.64 32.48 32.37 31.47 30.35
33.10 33.58 33.22 32.70 33.91 34.79 31.51 29.85 29.48 29.91 31.93 31.78 31.37 31.13 31.01 31.28 32.02 32.83 31.86 31.69 28.76 20.95 18.68 26.92 21.18 21.37 30.40 30.36 31.57 34.15 33.57 33.47 32.97 32.98 32.85 31.18 30.10 28.36
31.60 31.97 32.97 32.29 32.91 32.59 31.13 30.08 27.54 27.80 28.13 27.38 26.68 26.58 27.42 27.46 27.44 24.70 21.74 22.50 25.38 14.63 18.45 24.49 20.10 17.27 18.78 31.92 25.89 26.07 21.75 29.97 30.81 29.81 29.66 28.82 28.12 21.03
29.11 29.70 31.31 32.91 32.95 32.73 31.63 29.71 28.31 28.34 26.41 24.77 23.57 23.36 23.39 22.82 23.25 22.75 20.61 21.17 17.28 14.27 16.79 17.77 12.36 11.53 11.61 14.76 17.81 23.68 18.72 18.58 18.70 20.50 24.74 25.40 25.89 24.75
27.10 28.31 29.33 30.68 30.66 30.38 29.66 30.02 28.70 25.58 23.25 21.57 20.60 18.94 18.80 19.01 20.23 20.48 18.71 18.72 18.65 17.87 17.67 17.48 14.60 14.79 11.83 11.88 13.67 18.80 18.00 17.81 18.20 19.12 18.86 22.37 23.28 23.51
26.84 27.01 26.54 26.06 25.73 25.28 25.92 24.76 22.62 21.43 20.06 17.63 16.74 16.76 13.92 14.69 19.47 22.17 23.45 24.03 24.21 24.19 24.08 22.11 18.99 19.86 15.79 13.17 14.04 16.21 17.39 19.01 19.12 18.31 18.93 19.18 18.40 19.09
24.22 23.21 22.53 21.96 20.59 20.32 20.26 20.80 19.78 18.42 18.18 17.78 17.90 18.89 20.70 20.62 19.08 19.74 18.34 19.06 18.14 18.76 22.49 22.49 21.23 20.76 17.82 18.87 18.79 16.80 17.40 14.80 17.51 17.94 19.25 18.93 18.66 18.91
23.57 22.47 20.74 19.54 18.03 17.94 17.80 17.98 18.68 18.53 16.64 16.89 16.40 16.54 17.75 18.62 18.17 18.46 17.90 16.86 14.05 14.42 15.55 18.88 19.96 20.65 20.08 19.47 15.37 15.20 15.14 15.01 15.91 17.26 18.36 16.01 16.37 17.52
20.47 17.97 16.97 17.12 16.39 16.12 15.55 15.67 16.47 16.44 16.57 15.92 14.94 15.47 15.59 16.16 16.49 16.69 16.49 14.53 13.58 14.51 15.01 16.07 15.24 14.84 15.90 16.85 19.58 14.70 14.07 14.05 16.04 17.62 17.01 13.74 13.52 16.89
17.16 16.17 15.36 15.64 15.67 15.82 15.14 14.35 13.17 14.68 14.97 12.77 10.83 10.88 12.91 13.92 13.86 13.76 12.86 12.98 12.85 13.53 13.79 14.95 13.30 11.02 3.08 -1.79 13.44 20.18 13.79 14.84 14.64 13.34 13.92 13.64 13.11 15.30
15.90 14.68 14.12 14.52 15.12 14.48 13.80 12.32 11.57 11.03 10.55 10.10 7.74 5.85 5.43 10.02 9.73 10.08 10.33 6.90 9.91 12.05 12.05 12.01 10.66 10.21 5.02 -1.11 1.00 9.56 19.44 13.57 12.34 11.22 12.55 15.09 14.39 18.19
14.41 13.42 12.95 13.23 12.70 11.24 9.27 7.61 6.68 4.35 3.39 1.78 3.12 4.00 -0.02 6.41 3.87 6.39 6.58 4.55 6.21 10.11 8.24 8.09 10.06 12.07 13.47 11.19 -0.74 2.10 10.14 17.44 16.41 13.59 13.29 9.76 8.72 9.65
11.47 10.68 10.16 9.38 8.18 8.63 3.14 2.72 3.70 2.53 2.94 3.44 -1.85 -2.06 -2.87 2.92 1.34 2.23 1.21 0.04 5.80 5.98 7.81 9.24 10.83 11.20 10.15 8.56 6.48 1.45 7.62 9.62 14.40 16.60 16.45 14.85 9.21 6.84
7.23 7.38 4.40 2.81 3.02 2.96 6.05 2.37 0.54 -0.75 -1.65 -1.78 -2.46 -2.89 -11.33 -2.82 -0.42 -1.48 -1.65 0.83 4.53 4.52 6.64 6.07 7.53 8.83 7.75 8.03 6.57 5.41 5.70 6.18 8.60 7.48 9.12 14.96 16.50 16.74